Zurück zum Katalog

DELTA 1 DEB

AktivSSO
NORAD 10843·DEBRIS·🇺🇸 United States

Gestartet Jul 29, 1976 von Vandenberg Space Force Base

Loading…

Nächste Überflüge (nächste 24 Stunden)

TLE

AktuellSource: Space-Track

Epoche: Sep 14, 2026, 10:11 UTC

1 10843U 76077CP  26257.42475853 -.00000013  00000-0  18058-3 0  9993
2 10843 101.7266 228.0517 0117370 114.4854  36.3872 12.58581684300462

Verfolge DELTA 1 DEB in Echtzeit mit AllMySat

Download on the App Store